Regional Weather Roundup
Issued by NWS

Home | Current Version | Previous Version | Graphics & Text | Print | Product List | Glossary On
Versions: 1 2 3 4 5 6 7 8 9 10 11 12 13 14 15 16 17 18 19 20 21 22 23 24 25 26 27
000
ASUS45 KBOU 211510
RWRCO

WEATHER ROUNDUP FOR COLORADO
NATIONAL WEATHER SERVICE DENVER/BOULDER CO
800 AM MST SUN JAN 21 2018

NOTE: "FAIR" INDICATES FEW OR NO CLOUDS BELOW 12000 FEET WITH NO
SIGNIFICANT WEATHER AND/OR OBSTRUCTIONS TO VISIBILITY.

COZ001>005-013-030-031-211600-
...NORTHWEST COLORADO...

CITY           SKY/WX    TMP DP  RH WIND       PRES   REMARKS
CRAIG          SNOW      20  17  88 SW17      29.77R VSB 1/4 WCI   5
HAYDEN         LGT SNOW N/A N/A N/A SW15      29.76S
MEEKER         SNOW      20  18  92 W8        29.81R VSB 1/2 WCI  10
RABBIT EARS PA SNOW      10   7  85 W10G17    29.62S VSB 1/2 WCI  -3
STEAMBOAT SPGS CLOUDY    19  17  94 SW3       29.74R VSB 3/4
WALDEN         CLOUDY    19  10  68 NE20      29.68S WCI   4
$$

COZ006>008-011-211600-
...WEST CENTRAL VALLEYS...

CITY           SKY/WX    TMP DP  RH WIND       PRES   REMARKS
GRAND JUNCTION LGT SNOW  28  28 100 N8        29.87R FOG     WCI  20
MONTROSE       CLOUDY    27  24  89 NW13      29.81R WCI  16
EAGLE          FAIR      27  21  78 W7        29.70R WCI  19
RIFLE          CLOUDY    28  15  58 W21G29    29.80R WCI  15
DELTA          MOCLDY    31  26  81 SE3       29.76R
NUCLA          LGT SNOW  27  25  93 W8        29.85R WCI  18
$$

COZ017>023-064>068-211600-
...SOUTHWEST COLORADO...

CITY           SKY/WX    TMP DP  RH WIND       PRES   REMARKS
DURANGO        LGT SNOW  23  23 100 W8        29.74S FOG     WCI  14
CORTEZ         LGT SNOW  25  23  92 NW9       29.83R VSB 1   WCI  15
PAGOSA SPRINGS LGT SNOW  21  20  96 CALM      29.73R
TELLURIDE      LGT SNOW  16  14  93 W6        29.72S VSB 3/4 WCI   7
WOLF CREEK PAS NOT AVBL
$$

COZ009-010-012-014-032>034-037-058>063-211600-
...CENTRAL COLORADO...

CITY           SKY/WX    TMP DP  RH WIND       PRES   REMARKS
ASPEN          CLOUDY    23  19  85 NW9       29.66R WCI  13
BUENA VISTA    LGT SNOW  25  22  88 SE14      29.62S WCI  13
COPPER MTN     NOT AVBL
BERTHOUD PASS  SNOW       1  -9  60 SE10      29.60S VSB<1/4 WCI -14
COTTONWOOD PAS   N/A     27  23  86 CALM      29.60S FOG
GUNNISON       CLOUDY    22  15  75 SW10      29.67R WCI  11
KREMMLING      LGT SNOW  30  23  74 N10G16    29.66S WCI  21
LEADVILLE      SNOW      16  13  88 NW12G20   29.58S VSB 1/2 WCI   3
MONARCH PASS   HVY SNOW  10   7  85 W24       29.66F VSB 1/4 WCI -10
SALIDA         CLOUDY    28  25  89 SE8       29.72R WCI  19
SUNLIGHT       SNOW       5   3  92 W12G23    29.67S VSB 1/2 WCI -11
WILKERSON PASS SNOW       9   5  85 NE15      29.61F VSB 1/4 WCI  -8
$$

COZ069>075-211600-
...SAN LUIS VALLEY/SANGRE DE CRISTO MOUNTAINS...

CITY           SKY/WX    TMP DP  RH WIND       PRES   REMARKS
ALAMOSA        SNOW      22  18  85 S3        29.64R VSB 1/2
DEL NORTE      CLOUDY    22  14  71 W18       29.63R WCI   8
LA VETA PASS   CLOUDY    16  12  86 CALM        N/A  FOG
SAGUACHE       LGT SNOW  23  21  93 SE6       29.64S WCI  16
$$

COZ035-036-038>040-211600-
...NORTHERN COLORADO FRONT RANGE...

CITY           SKY/WX    TMP DP  RH WIND       PRES   REMARKS
DENVER INTL AP SNOW      25  22  88 N12       29.80S VSB 1/2 WCI  14
DMNS CITY PARK NOT AVBL
AURORA         LGT SNOW  24  24 100 N8        29.79S FOG     WCI  15
FRONT RANGE AP LGT SNOW  27  27 100 N10       29.79F VSB 1   WCI  17
ERIE MUNI ARPT LGT SNOW  27  27  97 N7        29.88R VSB 1   WCI  20
BOULDER MUN AP LGT SNOW  28  27  93 N6        29.82S WCI  22
CENTENNIAL     LGT SNOW  24  23  96 N9        29.78R VSB 1   WCI  14
BROOMFIELD     LGT SNOW  27  25  93 N13       29.80S VSB 1   WCI  16
FORT COLLINS   LGT SNOW  26  25  96 N14       29.84S VSB 3/4 WCI  14
LONGMONT       LGT SNOW  29  28  92 N5        29.85S VSB 3/4 WCI  24
$$

COZ041-046-047-076>085-087-088-211600-
...PIKES PEAK/PALMER DIVIDE AND SOUTHERN FOOTHILLS...

CITY           SKY/WX    TMP DP  RH WIND       PRES   REMARKS
COLO. SPRINGS  LGT SNOW  26  20  77 N16G24    29.69F FOG     WCI  14
A. F. ACADEMY  LGT SNOW  23  20  88 N20       29.69F VSB 1   WCI   9
SCHRIEVER AFB  SNOWSHWR  24  21  88 NE13G20   29.69F WCI  13
CHEYENNE MTN   LGT SNOW  22  20  94 N21G30    29.60F VSB 3/4 WCI   6
ELLICOTT         N/A    N/A N/A N/A NE15      29.68F
FALCON         CLOUDY    23  19  87 N20G28    29.68F FOG     WCI   8
FORT CARSON    LGT SNOW  27  22  84 N24G31    29.69R VSB 1   WCI  12
LIMON          CLOUDY    25  24  96 N15       29.74F WCI  13
MONUMENT HILL  LGT SNOW N/A N/A N/A N9        29.74S
CANON CITY     LGT SNOW  32  30  93 SE14      29.70F WCI  22
WALSENBURG     CLOUDY    28  28 100 NE8       29.71R WCI  20
TRINIDAD       CLOUDY    27  26  96 N6        29.70R FOG     WCI  20
$$

COZ042>045-048>051-090-091-211600-
...NORTHEAST COLORADO...

CITY           SKY/WX    TMP DP  RH WIND       PRES   REMARKS
GREELEY ARPT   LGT SNOW  27  26  96 N12       29.85R FOG     WCI  17
AKRON          HVY SNOW  27  26  96 NE18      29.78F VSB 1/4 WCI  14
BURLINGTON     CLOUDY    28  28 100 N16       29.74S FOG     WCI  16
WRAY           FLURRIES  32  28  86 NE21G28   29.78F WCI  20
YUMA           LGT SNOW  28  27  93 N15       29.78F WCI  17
STERLING       LGT SNOW  30  30 100 N8        29.84R VSB 3/4 WCI  23
HOLYOKE        CLOUDY    34  30  86 NE22G29   29.83R WCI  22
FORT MORGAN    SNOW      28  27  94 N16       29.82F VSB 1/2 WCI  17
$$

COZ086-089-092>099-211600-
...SOUTHEAST COLORADO...

CITY           SKY/WX    TMP DP  RH WIND       PRES   REMARKS
PUEBLO         LGT SNOW  31  27  85 N5        29.75R FOG     WCI  26
LA JUNTA       CLOUDY    31  26  82 N7        29.71F WCI  24
LAMAR          CLOUDY    32  26  78 NE7       29.73F WCI  26
SPRINGFIELD      N/A     29  27  92 NE16G22   29.67F WCI  17
$$




USA.gov is the U.S. government's official web portal to all federal, state and local government web resources and services.